Location: Albuquerque Trailhead
(34.7934°N, 106.3736°W)
Time: 10:31:10
(UTC+00:00)

Exosat Rocket - Pass Details

Date: 27 October 2021
Orbit: 759 x 2516 km, 72.3° (Epoch: 08 December)

Event Time Altitude Azimuth Distance (km) Brightness Sun altitude
Exits shadow 10:55:42 12° 193° (SSW) 3,362 6.6 -30.6°
Maximum altitude 11:04:08 84° 106° (ESE) 1,821 5.3 -28.8°
Drops below altitude 10° 11:16:50 10° 21° (NNE) 4,871 7.8 -26.2°
Sets 11:20:49 0° 21° (NNE) 6,030 8.4 -25.4°
